Simultaneous Nadir Overpasses (SNOs) Predictions

Prediction of SNOs between GOES-16 and NOAA-19 Satellite Orbit:

Table of predicted SNOs for the next 14.0 days since TLE Epoch: 1/10/2020
Index Date Time (GOES-16) GOES-16 Lat,Lon NOAA-19 Lat,Lon Distance(km) Time Diff (sec)
1 01/11/2020 10:35:40 0.07, -75.23 0.30, -76.25 116.90 80
2 01/12/2020 10:21:20 0.07, -75.23 -0.37, -73.41 209.14 80
3 01/14/2020 22:42:30 -0.08, -75.24 -0.82, -78.41 361.32 80
4 01/15/2020 22:30:51 -0.08, -75.25 -0.16, -75.56 34.89 80
5 01/16/2020 22:21:51 -0.08, -75.27 0.49, -72.71 291.74 80
6 01/19/2020 10:42:47 0.08, -75.32 0.66, -77.66 267.25 80
7 01/20/2020 10:28:28 0.09, -75.34 -0.01, -74.81 59.92 80
8 01/21/2020 10:16:48 0.09, -75.36 -0.68, -71.96 387.11 80
9 01/23/2020 22:38:00 -0.10, -75.39 -0.48, -76.98 181.19 80




NCC Satellite Simultaneous Nadir Overpasses (SNOs) Prediction Service
